Rank BattleTag® Completed
1. bojang Oct 22, 2016 10:54:55 AM
Micah Oct 22, 2016 10:54:55 AM
Leonidas Oct 22, 2016 10:54:55 AM
4. TinneOnnMuin Oct 22, 2016 11:38:48 PM
Zirok Oct 22, 2016 11:38:48 PM
Zero Oct 22, 2016 11:38:48 PM
SirEpix Oct 22, 2016 11:38:48 PM
8. 小平 Oct 23, 2016 12:43:43 PM
9. 天兒 Oct 23, 2016 1:02:27 PM
GiantSlayer Oct 23, 2016 1:02:27 PM
11. Joker Oct 23, 2016 6:23:10 PM
dindo171 Oct 23, 2016 6:23:10 PM
Feriom Oct 23, 2016 6:23:10 PM
JohnBranca Oct 23, 2016 6:23:10 PM
15. Kontrol Oct 24, 2016 12:00:09 AM
iMpakT Oct 24, 2016 12:00:09 AM
Crescen Oct 24, 2016 12:00:09 AM
smite93 Oct 24, 2016 12:00:09 AM
19. Dexstroy Oct 24, 2016 1:19:02 AM
Haramiri Oct 24, 2016 1:19:02 AM
21. K79 Oct 24, 2016 2:41:04 AM
22. Hyalos Oct 24, 2016 3:00:22 AM
23. Deworlded Oct 24, 2016 6:28:25 PM
Gogurt Oct 24, 2016 6:28:25 PM
MRH Oct 24, 2016 6:28:25 PM
26. DeathZai Oct 25, 2016 1:23:37 AM
oakntokes Oct 25, 2016 1:23:37 AM
Babylon Oct 25, 2016 1:23:37 AM
Rain Oct 25, 2016 1:23:37 AM
30. Hurricane Oct 25, 2016 2:13:59 AM
BigJohnasty Oct 25, 2016 2:13:59 AM
Helion666 Oct 25, 2016 2:13:59 AM
THAC0 Oct 25, 2016 2:13:59 AM
34. Naamar Oct 25, 2016 6:07:16 AM
35. Nomi Oct 25, 2016 9:28:10 PM
36. gchin24 Oct 25, 2016 9:51:59 PM
Koraseru Oct 25, 2016 9:51:59 PM
38. Baalrogg Oct 26, 2016 12:27:04 AM
39. TwoWheelsOz Oct 26, 2016 2:41:16 AM
Parhelion Oct 26, 2016 2:41:16 AM
41. Mutt Oct 26, 2016 3:06:46 AM
42. Geminel Oct 26, 2016 4:28:50 AM
43. joe Oct 26, 2016 6:32:04 AM
TimS Oct 26, 2016 6:32:04 AM
45. Dialysis Oct 26, 2016 6:57:10 AM
46. Zan Oct 26, 2016 11:49:08 AM
47. Diablo3 Oct 27, 2016 12:48:31 AM
Gunslinger Oct 27, 2016 12:48:31 AM
Acorn Oct 27, 2016 12:48:31 AM
driz Oct 27, 2016 12:48:31 AM
51. 大成 Oct 27, 2016 2:19:49 AM
52. 阿強 Oct 27, 2016 12:28:55 PM
53. Legend Oct 27, 2016 1:32:21 PM
54. HellEdge Oct 27, 2016 3:59:30 PM
55. Esab Oct 27, 2016 5:19:02 PM
jollytex Oct 27, 2016 5:19:02 PM
57. TheNicoman Oct 27, 2016 5:34:42 PM
FORSALVATION Oct 27, 2016 5:34:42 PM
59. SuusJudex Oct 27, 2016 5:52:49 PM
60. cptkil Oct 27, 2016 10:05:22 PM
Hanzo Oct 27, 2016 10:05:22 PM
62. Dbo Oct 27, 2016 10:39:05 PM
Vesuvius Oct 27, 2016 10:39:05 PM
64. FlinT Oct 28, 2016 2:59:16 AM
65. F41X4BL4NC4 Oct 28, 2016 3:12:17 AM
66. Apocalypse Oct 28, 2016 3:32:02 AM
67. Authentic Oct 28, 2016 3:33:50 PM
68. Legit Oct 28, 2016 3:54:56 PM
69. alexn Oct 28, 2016 7:10:22 PM
Leddo Oct 28, 2016 7:10:22 PM
71. spidey Oct 28, 2016 9:29:54 PM
TiltMode Oct 28, 2016 9:29:54 PM
Martyr Oct 28, 2016 9:29:54 PM
74. Valiant Oct 29, 2016 12:37:55 AM
LoganDream Oct 29, 2016 12:37:55 AM
76. BlackCherry Oct 29, 2016 1:20:20 AM
77. Monkeygurly Oct 29, 2016 1:57:39 AM
superman Oct 29, 2016 1:57:39 AM
Demonic Oct 29, 2016 1:57:39 AM
TogMaster Oct 29, 2016 1:57:39 AM
81. Nerdstomper Oct 29, 2016 2:38:11 AM
Animator Oct 29, 2016 2:38:11 AM
Existential Oct 29, 2016 2:38:11 AM
BehindTimes Oct 29, 2016 2:38:11 AM
85. TimFreeman Oct 29, 2016 2:49:08 AM
Decara Oct 29, 2016 2:49:08 AM
Alphalaser Oct 29, 2016 2:49:08 AM
88. evilO Oct 29, 2016 4:31:23 AM
johnpaulr Oct 29, 2016 4:31:23 AM
90. DarcZero Oct 29, 2016 6:03:21 AM
91. cylix Oct 29, 2016 10:42:27 AM
92. RifleSniper Oct 29, 2016 1:38:09 PM
93. AndyYang Oct 29, 2016 2:38:37 PM
Kevinjw Oct 29, 2016 2:38:37 PM
簡單的複雜 Oct 29, 2016 2:38:37 PM
96. Morbus Oct 29, 2016 4:12:12 PM
Calavera Oct 29, 2016 4:12:12 PM
s0lar Oct 29, 2016 4:12:12 PM
Remiel Oct 29, 2016 4:12:12 PM
100. Major Oct 29, 2016 4:55:05 PM
Simon Oct 29, 2016 4:55:05 PM
Latios Oct 29, 2016 4:55:05 PM
103. cybermoo Oct 29, 2016 9:43:59 PM
Starphire Oct 29, 2016 9:43:59 PM
Islewitch Oct 29, 2016 9:43:59 PM
Derbinator Oct 29, 2016 9:43:59 PM
107. Jaxjay Oct 29, 2016 9:58:09 PM
108. Leviathan Oct 29, 2016 10:01:08 PM
109. Macoubrie Oct 30, 2016 2:57:40 AM
Rigamortis Oct 30, 2016 2:57:40 AM
111. Saladdin Oct 30, 2016 6:43:32 AM
112. regine Oct 30, 2016 9:03:13 AM
113. kaiwai Oct 30, 2016 11:43:38 AM
114. z010529 Oct 30, 2016 11:59:05 AM
115. 笑敏叔叔 Oct 30, 2016 12:05:50 PM
killua Oct 30, 2016 12:05:50 PM
117. 大膽小書童 Oct 30, 2016 1:12:59 PM
118. WhiteDwarf Oct 30, 2016 2:46:24 PM
119. sonexotic Oct 30, 2016 7:50:12 PM
Zelse Oct 30, 2016 7:50:12 PM
LowKick Oct 30, 2016 7:50:12 PM
122. Murlock Oct 30, 2016 7:52:01 PM
badmojo46 Oct 30, 2016 7:52:01 PM
RandomTag Oct 30, 2016 7:52:01 PM
125. Gate3535 Oct 30, 2016 8:43:38 PM
Pohuist Oct 30, 2016 8:43:38 PM
127. Aphyrax Oct 30, 2016 8:57:47 PM
Tlavin Oct 30, 2016 8:57:47 PM
129. Shøcks Oct 30, 2016 9:57:54 PM
130. Nom Oct 30, 2016 11:31:29 PM
131. LLAMAMiLK Oct 30, 2016 11:59:23 PM
132. Shade Oct 31, 2016 12:10:24 AM
133. Headache Oct 31, 2016 12:14:31 AM
EdipusWrecks Oct 31, 2016 12:14:31 AM
nonentity Oct 31, 2016 12:14:31 AM
136. Sasha Oct 31, 2016 2:39:27 AM
137. even0060 Oct 31, 2016 4:14:49 AM
138. Earend Oct 31, 2016 4:42:16 AM
139. allen Oct 31, 2016 5:47:45 AM
中仔 Oct 31, 2016 5:47:45 AM
Pozi335 Oct 31, 2016 5:47:45 AM
142. 雄霸 Oct 31, 2016 11:36:45 AM
143. man Oct 31, 2016 1:04:18 PM
144. RCL Oct 31, 2016 2:16:45 PM
145. Quar Oct 31, 2016 2:52:27 PM
146. JGan Oct 31, 2016 4:22:20 PM
147. Rastaspoon Oct 31, 2016 11:23:14 PM
148. DrTerror Nov 1, 2016 1:17:25 AM
Shogunmj Nov 1, 2016 1:17:25 AM
150. Kvelertak Nov 1, 2016 3:34:37 AM
Gojira Nov 1, 2016 3:34:37 AM
152. angeraze Nov 1, 2016 4:00:33 AM
153. bestbang Nov 1, 2016 8:05:39 AM
jinpark Nov 1, 2016 8:05:39 AM
MinLee Nov 1, 2016 8:05:39 AM
MONGNANG Nov 1, 2016 8:05:39 AM
157. D3RageR Nov 1, 2016 9:05:51 PM
posseidonjon Nov 1, 2016 9:05:51 PM
Zylord Nov 1, 2016 9:05:51 PM
160. Taboobat Nov 1, 2016 9:34:30 PM
161. LoneWolf Nov 1, 2016 11:59:55 PM
162. TrueSeeker Nov 2, 2016 4:06:09 AM
163. PPhill Nov 2, 2016 5:26:03 AM
RedMonkey Nov 2, 2016 5:26:03 AM
ChoseN Nov 2, 2016 5:26:03 AM
166. Feng Nov 2, 2016 2:34:05 PM
167. Stition Nov 2, 2016 9:12:23 PM
168. grmblfzz Nov 2, 2016 9:31:14 PM
169. Freziel Nov 3, 2016 1:30:25 AM
170. 名劍山莊 Nov 3, 2016 2:25:58 AM
171. Intheshadows Nov 3, 2016 6:38:30 AM
172. Xesie Nov 3, 2016 10:04:43 AM
173. waiping Nov 3, 2016 1:06:46 PM
174. yboy731 Nov 3, 2016 1:14:23 PM
175. Schenkopp Nov 3, 2016 3:35:47 PM
176. ISNIPE84 Nov 3, 2016 3:47:57 PM
haushinka Nov 3, 2016 3:47:57 PM
blechx Nov 3, 2016 3:47:57 PM
Poisoner Nov 3, 2016 3:47:57 PM
180. ChickenJibs Nov 3, 2016 7:11:14 PM
Pain Nov 3, 2016 7:11:14 PM
JustBeAKid Nov 3, 2016 7:11:14 PM
Havoc Nov 3, 2016 7:11:14 PM
184. Daveable Nov 3, 2016 7:16:31 PM
185. Artist Nov 4, 2016 3:20:27 AM
186. Manimaul Nov 4, 2016 3:51:05 AM
Zaphod Nov 4, 2016 3:51:05 AM
Tempatantrum Nov 4, 2016 3:51:05 AM
189. Brayhax Nov 4, 2016 6:14:44 AM
Paperthin Nov 4, 2016 6:14:44 AM
Ludichrist Nov 4, 2016 6:14:44 AM
optimiz3 Nov 4, 2016 6:14:44 AM
193. Oprah Nov 4, 2016 7:25:30 AM
Ragnarok Nov 4, 2016 7:25:30 AM
195. PunkNOFX Nov 4, 2016 7:59:45 AM
196. Shanda Nov 4, 2016 8:16:24 AM
197. shadowarg Nov 4, 2016 9:58:09 AM
predat0r Nov 4, 2016 9:58:09 AM
199. abndri Nov 4, 2016 12:54:50 PM
Dimitri Nov 4, 2016 12:54:50 PM
201. kinwithag Nov 4, 2016 6:32:01 PM
202. blitzkriege Nov 5, 2016 12:58:32 AM
203. overthehill Nov 5, 2016 1:01:39 AM
badunkle Nov 5, 2016 1:01:39 AM
205. amorlock Nov 5, 2016 1:19:22 AM
Kaizen Nov 5, 2016 1:19:22 AM
207. SleepyShaman Nov 5, 2016 1:37:12 AM
Terga Nov 5, 2016 1:37:12 AM
kales Nov 5, 2016 1:37:12 AM
Klodin Nov 5, 2016 1:37:12 AM
211. JiggaWhat Nov 5, 2016 4:54:25 AM
ijack Nov 5, 2016 4:54:25 AM
KLLRMAGIC Nov 5, 2016 4:54:25 AM
214. ThisGuy Nov 5, 2016 5:22:54 AM
Sherbert Nov 5, 2016 5:22:54 AM
Bile Nov 5, 2016 5:22:54 AM
Nilinor Nov 5, 2016 5:22:54 AM
218. Dustbin Nov 5, 2016 6:43:55 AM
219. reddeer Nov 5, 2016 6:55:03 AM
Phoenix Nov 5, 2016 6:55:03 AM
221. faceplant Nov 5, 2016 6:59:32 AM
rickyo Nov 5, 2016 6:59:32 AM
223. BOO Nov 5, 2016 7:10:52 AM
AKey Nov 5, 2016 7:10:52 AM
225. DomoCat Nov 5, 2016 8:09:37 AM
226. polar Nov 5, 2016 4:52:49 PM
SquishyDough Nov 5, 2016 4:52:49 PM
SurrealSage Nov 5, 2016 4:52:49 PM
229. Griever Nov 5, 2016 5:17:24 PM
Archaos Nov 5, 2016 5:17:24 PM
231. Broonie Nov 5, 2016 5:42:21 PM
Melcar Nov 5, 2016 5:42:21 PM
233. DRIZZT1331 Nov 5, 2016 6:34:41 PM
234. Yarlith Nov 5, 2016 8:38:34 PM
ChromeOnRust Nov 5, 2016 8:38:34 PM
236. Roq Nov 5, 2016 9:48:38 PM
237. nos Nov 5, 2016 9:56:33 PM
Mithrall Nov 5, 2016 9:56:33 PM
239. rise Nov 5, 2016 10:02:15 PM
240. Forheuh Nov 5, 2016 10:16:59 PM
241. jU2 Nov 5, 2016 11:05:57 PM
fullthrottle Nov 5, 2016 11:05:57 PM
MiszCupids Nov 5, 2016 11:05:57 PM
244. Welcomerain Nov 6, 2016 12:03:50 AM
Daggen Nov 6, 2016 12:03:50 AM
Quake2 Nov 6, 2016 12:03:50 AM
247. roar Nov 6, 2016 1:10:44 AM
248. Pekerchu Nov 6, 2016 1:12:23 AM
249. I0IGODI0I Nov 6, 2016 1:13:08 AM
250. dizaster Nov 6, 2016 3:18:14 AM
251. SenBonZakura Nov 6, 2016 5:02:16 AM
252. WalkingDead Nov 6, 2016 5:21:07 AM
Hardcider Nov 6, 2016 5:21:07 AM
254. DEATHCAMP Nov 6, 2016 5:38:20 AM
incoruptible Nov 6, 2016 5:38:20 AM
256. Blueflamegmz Nov 6, 2016 6:45:03 AM
HanVo Nov 6, 2016 6:45:03 AM
258. ADamnPigeon Nov 6, 2016 7:04:38 AM
259. MirukuMoon Nov 6, 2016 8:01:56 AM
260. Desrame Nov 6, 2016 8:31:32 AM
261. RRtaz Nov 6, 2016 8:48:01 AM
262. Seraphiel Nov 6, 2016 9:01:22 AM
263. kronos Nov 6, 2016 11:29:06 AM
GCostanza Nov 6, 2016 11:29:06 AM
265. whitefirex Nov 6, 2016 2:57:18 PM
Ashtraymaker Nov 6, 2016 2:57:18 PM
Aeroace17 Nov 6, 2016 2:57:18 PM
268. thunderage Nov 6, 2016 4:24:51 PM
ming Nov 6, 2016 4:24:51 PM
270. XpeterBox Nov 6, 2016 4:41:00 PM
奇瓦諾 Nov 6, 2016 4:41:00 PM
272. TehRover Nov 6, 2016 7:33:45 PM
Shastabeast Nov 6, 2016 7:33:45 PM
BruceLeet Nov 6, 2016 7:33:45 PM
naterdd3 Nov 6, 2016 7:33:45 PM
276. SULLE Nov 7, 2016 12:17:44 AM
277. haloimplant Nov 7, 2016 12:22:09 AM
Slayer Nov 7, 2016 12:22:09 AM
DarKKnight77 Nov 7, 2016 12:22:09 AM
280. Rudum Nov 7, 2016 2:56:46 AM
actionnewbs Nov 7, 2016 2:56:46 AM
Dartok Nov 7, 2016 2:56:46 AM
Balaar Nov 7, 2016 2:56:46 AM
284. 歐耶 Nov 7, 2016 3:16:09 AM
285. AndersonEvg Nov 7, 2016 5:23:53 AM
286. Endless Nov 7, 2016 6:07:13 AM
Bastion Nov 7, 2016 6:07:13 AM
Rainyman Nov 7, 2016 6:07:13 AM
289. Velixier Nov 7, 2016 8:06:58 AM
290. JoyFactory Nov 7, 2016 8:30:26 AM
291. Greazer Nov 7, 2016 1:19:13 PM
292. haihai Nov 7, 2016 3:12:14 PM
293. MephistoX Nov 7, 2016 3:26:58 PM
294. birdman Nov 7, 2016 3:58:29 PM
295. Thunderpants Nov 7, 2016 5:25:25 PM
296. Jarlaxle Nov 7, 2016 6:29:07 PM
matrix Nov 7, 2016 6:29:07 PM
Carrera Nov 7, 2016 6:29:07 PM
299. nhansen Nov 7, 2016 9:33:04 PM
300. skII Nov 8, 2016 12:01:44 AM
301. inkDassassin Nov 8, 2016 1:47:57 AM
DST Nov 8, 2016 1:47:57 AM
BigDawg Nov 8, 2016 1:47:57 AM
Sherwin Nov 8, 2016 1:47:57 AM
305. Aeden Nov 8, 2016 3:30:26 AM
System Nov 8, 2016 3:30:26 AM
307. PatsFanatic Nov 8, 2016 3:44:06 AM
Mike Nov 8, 2016 3:44:06 AM
309. UnholyPriest Nov 8, 2016 3:44:36 AM
bigbudsativa Nov 8, 2016 3:44:36 AM
BLAZINGJAG Nov 8, 2016 3:44:36 AM
312. Seair Nov 8, 2016 4:40:29 AM
raynoRRN Nov 8, 2016 4:40:29 AM
314. LuckyDevil Nov 8, 2016 5:19:47 AM
Notyart Nov 8, 2016 5:19:47 AM
Aokighara Nov 8, 2016 5:19:47 AM
317. kukurio Nov 8, 2016 5:53:19 AM
318. Slothpunch Nov 8, 2016 6:16:25 AM
319. Lucas510 Nov 8, 2016 7:07:40 AM
320. laeh Nov 8, 2016 7:08:04 AM
Truedge Nov 8, 2016 7:08:04 AM
322. Critical Nov 8, 2016 7:31:05 AM
323. Nov 8, 2016 7:34:00 AM
324. TheButchers Nov 8, 2016 7:50:01 AM
Eddy Nov 8, 2016 7:50:01 AM
326. CyLaNt Nov 8, 2016 10:58:39 AM
327. BENZ Nov 8, 2016 12:15:05 PM
mari Nov 8, 2016 12:15:05 PM
329. usukiti Nov 8, 2016 12:31:08 PM
330. sLing Nov 8, 2016 3:10:52 PM
331. gazira Nov 8, 2016 3:42:06 PM
Muroken Nov 8, 2016 3:42:06 PM
333. HanSolo Nov 8, 2016 5:11:47 PM
334. Voltriseka Nov 8, 2016 10:26:17 PM
335. Alpha Nov 9, 2016 4:49:17 AM
Wizard1134 Nov 9, 2016 4:49:17 AM
337. PoserPunx Nov 9, 2016 8:01:15 AM
338. iLycheeJelly Nov 9, 2016 8:29:45 AM
HotAsIce Nov 9, 2016 8:29:45 AM
shikamarul Nov 9, 2016 8:29:45 AM
iNguyen Nov 9, 2016 8:29:45 AM
342. Chromezy Nov 9, 2016 9:55:40 AM
343. Dubnik Nov 9, 2016 12:16:48 PM
344. Neme Nov 9, 2016 1:12:10 PM
neko Nov 9, 2016 1:12:10 PM
346. dongdong Nov 9, 2016 2:10:12 PM
沒水 Nov 9, 2016 2:10:12 PM
MySTBUtcher Nov 9, 2016 2:10:12 PM
349. KuRonin Nov 9, 2016 7:01:00 PM
350. Casado Nov 9, 2016 7:54:25 PM
Pzypro Nov 9, 2016 7:54:25 PM
Fishy Nov 9, 2016 7:54:25 PM
TomCanadian Nov 9, 2016 7:54:25 PM
354. maklans Nov 9, 2016 9:42:18 PM
Montanha Nov 9, 2016 9:42:18 PM
Crazynp Nov 9, 2016 9:42:18 PM
357. DweeZ Nov 9, 2016 11:22:03 PM
358. Rekesh Nov 9, 2016 11:56:45 PM
359. Crusader Nov 10, 2016 12:11:00 AM
360. S0lid Nov 10, 2016 2:02:06 AM
361. alex Nov 10, 2016 3:03:27 AM
Hitman2042 Nov 10, 2016 3:03:27 AM
363. muTe Nov 10, 2016 3:23:46 AM
364. andr3lu7 Nov 10, 2016 7:23:00 PM
365. SilvioDiniz Nov 10, 2016 8:29:10 PM
366. IllMisfit Nov 11, 2016 12:02:45 AM
367. Manipulated Nov 11, 2016 12:09:03 AM
368. Iznogoud Nov 11, 2016 2:03:30 AM
369. CCF Nov 11, 2016 2:53:10 AM
370. Sickness Nov 11, 2016 3:14:00 AM
phinfan Nov 11, 2016 3:14:00 AM
372. DeF Nov 11, 2016 3:48:13 AM
Sweetness Nov 11, 2016 3:48:13 AM
Raph Nov 11, 2016 3:48:13 AM
Eric Nov 11, 2016 3:48:13 AM
376. Alexismad Nov 11, 2016 4:22:20 AM
377. jefftang Nov 11, 2016 10:50:00 AM
378. FlyingDragon Nov 11, 2016 11:06:21 AM
379. Arkam18 Nov 11, 2016 4:43:13 PM
380. Ambir Nov 11, 2016 5:03:22 PM
381. Jeff Nov 11, 2016 5:54:38 PM
JAMES Nov 11, 2016 5:54:38 PM
383. BlueBrutus Nov 11, 2016 7:35:58 PM
384. Kenichi766 Nov 11, 2016 10:58:11 PM
Viper Nov 11, 2016 10:58:11 PM
386. Junoreactor Nov 11, 2016 11:17:00 PM
387. Pilsun Nov 12, 2016 2:09:15 AM
388. Masvyck Nov 12, 2016 2:39:46 AM
CRoy66 Nov 12, 2016 2:39:46 AM
BMWaRzOnE Nov 12, 2016 2:39:46 AM
391. alshadow Nov 12, 2016 2:59:18 AM
392. chemgen Nov 12, 2016 5:42:21 AM
simpli Nov 12, 2016 5:42:21 AM
Gudzmaster Nov 12, 2016 5:42:21 AM
395. Hazred Nov 12, 2016 12:13:55 PM
396. 막시무쓰 Nov 12, 2016 12:34:56 PM
397. 衝瘋巴诶逼八滴 Nov 12, 2016 2:15:41 PM
Alex Nov 12, 2016 2:15:41 PM
一清 Nov 12, 2016 2:15:41 PM
400. Demitian Nov 12, 2016 5:12:03 PM
401. UnLeAsHSlydr Nov 12, 2016 5:27:44 PM
Facundito Nov 12, 2016 5:27:44 PM
Apocalyptica Nov 12, 2016 5:27:44 PM
Crisis Nov 12, 2016 5:27:44 PM
405. JemsDad Nov 12, 2016 6:49:28 PM
406. TANJM Nov 12, 2016 9:22:06 PM
407. Mudda Nov 12, 2016 9:44:32 PM
408. Contragor Nov 12, 2016 10:07:05 PM
409. Gearhead Nov 12, 2016 10:54:27 PM
410. Cuttles Nov 13, 2016 12:07:44 AM
411. Werner Nov 13, 2016 1:44:22 AM
Seifa Nov 13, 2016 1:44:22 AM
repezza Nov 13, 2016 1:44:22 AM
414. Allorim Nov 13, 2016 2:35:32 AM
415. bench Nov 13, 2016 6:47:22 AM
ZdayJ Nov 13, 2016 6:47:22 AM
PinoyPride Nov 13, 2016 6:47:22 AM
Gafgarion Nov 13, 2016 6:47:22 AM
419. null Nov 13, 2016 7:57:05 AM
420. わたぼう Nov 13, 2016 11:20:13 AM
421. Wolfius Nov 13, 2016 4:52:26 PM
Isshin Nov 13, 2016 4:52:26 PM
423. Lethe Nov 13, 2016 8:13:56 PM
424. Spartachris Nov 13, 2016 9:27:32 PM
425. MaVeTh Nov 13, 2016 11:34:38 PM
Durph Nov 13, 2016 11:34:38 PM
Valyrian Nov 13, 2016 11:34:38 PM
germwarfare Nov 13, 2016 11:34:38 PM
429. Monkeyz Nov 13, 2016 11:36:26 PM
DTD Nov 13, 2016 11:36:26 PM
Jackpod Nov 13, 2016 11:36:26 PM
432. Technician Nov 13, 2016 11:55:19 PM
VENDETTARAGE Nov 13, 2016 11:55:19 PM
434. Froggy Nov 14, 2016 12:15:20 AM
435. Polaris Nov 14, 2016 12:42:21 AM
436. maerong Nov 14, 2016 5:07:48 AM
437. Nate Nov 14, 2016 6:20:29 AM
Deux Nov 14, 2016 6:20:29 AM
439. haodi Nov 14, 2016 6:32:24 AM
daxia1102 Nov 14, 2016 6:32:24 AM
kokoro Nov 14, 2016 6:32:24 AM
442. Freakish Nov 14, 2016 7:04:42 AM
443. DiewHai Nov 14, 2016 10:26:13 PM
JJt Nov 14, 2016 10:26:13 PM
Nov 14, 2016 10:26:13 PM
446. Kaleidoscope Nov 14, 2016 11:26:43 PM
Murael Nov 14, 2016 11:26:43 PM
Bear Nov 14, 2016 11:26:43 PM
449. Skaggerack Nov 15, 2016 1:08:22 AM
450. Shroozles Nov 15, 2016 1:34:01 AM
StubbornMule Nov 15, 2016 1:34:01 AM
Stoptalking Nov 15, 2016 1:34:01 AM
453. Porcaum Nov 15, 2016 3:01:17 AM
fAo Nov 15, 2016 3:01:17 AM
Pato Nov 15, 2016 3:01:17 AM
PeU Nov 15, 2016 3:01:17 AM
457. MurMrak Nov 15, 2016 3:08:23 AM
458. Kote Nov 15, 2016 3:37:49 AM
459. MFDOOMiile Nov 15, 2016 3:44:27 AM
Delf Nov 15, 2016 3:44:27 AM
461. Diettiger Nov 15, 2016 7:40:06 AM
462. Bkzst Nov 15, 2016 9:20:47 AM
463. krackercat Nov 15, 2016 9:46:03 AM
464. Magyk Nov 15, 2016 10:52:58 AM
nobodyloveme Nov 15, 2016 10:52:58 AM
466. Chumpatizer Nov 15, 2016 8:39:52 PM
Mephisto Nov 15, 2016 8:39:52 PM
JeanbuteOsti Nov 15, 2016 8:39:52 PM
Shiosan Nov 15, 2016 8:39:52 PM
470. 雪櫻紛飛 Nov 15, 2016 10:38:36 PM
471. Dust2Dust Nov 16, 2016 4:12:32 AM
andrey Nov 16, 2016 4:12:32 AM
halothane Nov 16, 2016 4:12:32 AM
Dashkiller Nov 16, 2016 4:12:32 AM
475. JROD Nov 16, 2016 6:30:43 AM
SpikeyChamp Nov 16, 2016 6:30:43 AM
477. elinsk Nov 16, 2016 7:44:51 AM
Hdog Nov 16, 2016 7:44:51 AM
mchang1x Nov 16, 2016 7:44:51 AM
Hellman66 Nov 16, 2016 7:44:51 AM
481. Dilan Nov 16, 2016 8:44:57 PM
482. morleyky Nov 17, 2016 1:54:00 AM
483. WithSteve Nov 17, 2016 2:28:14 AM
Miyagii Nov 17, 2016 2:28:14 AM
Fackenoob Nov 17, 2016 2:28:14 AM
Kara Nov 17, 2016 2:28:14 AM
487. rafaeldat Nov 17, 2016 5:18:05 AM
488. cprebel1 Nov 17, 2016 6:58:15 AM
mandown Nov 17, 2016 6:58:15 AM
490. darknesfalls Nov 17, 2016 9:26:02 AM
HErMEsS Nov 17, 2016 9:26:02 AM
492. Legato Nov 17, 2016 10:01:38 AM
493. Ryoka Nov 17, 2016 11:56:55 AM
NickBaldyM Nov 17, 2016 11:56:55 AM
Hodor Nov 17, 2016 11:56:55 AM
Highlander23 Nov 17, 2016 11:56:55 AM
497. Starlite Nov 17, 2016 1:02:07 PM
498. phaseurs Nov 17, 2016 10:24:27 PM
499. Deathonparol Nov 17, 2016 11:56:19 PM
500. GeraX Nov 18, 2016 1:54:28 AM
501. giddy Nov 18, 2016 2:29:09 PM
Jeanisis Nov 18, 2016 2:29:09 PM
503. ttwell Nov 18, 2016 3:00:23 PM
504. 夜貓公子 Nov 18, 2016 3:10:06 PM
505. 古月 Nov 18, 2016 3:27:13 PM
506. VIvidVisions Nov 18, 2016 8:02:43 PM
507. Ponusaurus Nov 18, 2016 8:22:46 PM
508. TaxGirl420 Nov 18, 2016 11:46:05 PM
509. TracerBullet Nov 19, 2016 2:08:53 AM
510. Denm107 Nov 19, 2016 2:24:55 AM
511. Skullcrusher Nov 19, 2016 3:47:01 AM
Magneto Nov 19, 2016 3:47:01 AM
Shark Nov 19, 2016 3:47:01 AM
Kondratus77 Nov 19, 2016 3:47:01 AM
515. earti Nov 19, 2016 7:20:57 AM
hawstyLe Nov 19, 2016 7:20:57 AM
Althos Nov 19, 2016 7:20:57 AM
518. CTN Nov 19, 2016 8:38:02 AM
519. Taxi284 Nov 19, 2016 4:44:00 PM
Snowbz Nov 19, 2016 4:44:00 PM
Rezyek Nov 19, 2016 4:44:00 PM
522. Demon Nov 19, 2016 4:53:00 PM
Gloominaati Nov 19, 2016 4:53:00 PM
524. USMCWarrior Nov 19, 2016 5:41:12 PM
525. xKro Nov 19, 2016 7:13:58 PM
SaltyBread Nov 19, 2016 7:13:58 PM
bleezle Nov 19, 2016 7:13:58 PM
528. Kuchikiz Nov 19, 2016 9:02:58 PM
529. crystalbabs Nov 19, 2016 11:30:59 PM
Maverick Nov 19, 2016 11:30:59 PM
531. mybtvex Nov 20, 2016 12:06:49 AM
Spankatron Nov 20, 2016 12:06:49 AM
533. Kickn Nov 20, 2016 3:02:18 AM
534. Ikkyo Nov 20, 2016 3:45:04 AM
535. Apollo Nov 20, 2016 3:50:00 AM
536. kneepads Nov 20, 2016 4:09:35 AM
BabySky Nov 20, 2016 4:09:35 AM
538. Melakai Nov 20, 2016 5:17:54 AM
539. Vankmin Nov 20, 2016 7:46:51 AM
vul Nov 20, 2016 7:46:51 AM
541. ZachOD Nov 20, 2016 2:21:37 PM
Avalanche Nov 20, 2016 2:21:37 PM
Aidin Nov 20, 2016 2:21:37 PM
maximuselem Nov 20, 2016 2:21:37 PM
545. UnrelentFrce Nov 20, 2016 2:37:57 PM
MaverickRB Nov 20, 2016 2:37:57 PM
Kai Nov 20, 2016 2:37:57 PM
548. Garginargle Nov 20, 2016 3:54:02 PM
549. OldGravey Nov 20, 2016 4:20:45 PM
550. Cheater Nov 20, 2016 4:42:12 PM
551. vaquilla Nov 20, 2016 8:19:32 PM
552. Fazzman Nov 20, 2016 9:08:27 PM
KyleJacobson Nov 20, 2016 9:08:27 PM
554. Suku Nov 20, 2016 9:28:20 PM
fufoOz Nov 20, 2016 9:28:20 PM
Vangarth Nov 20, 2016 9:28:20 PM
557. Draxalon Nov 20, 2016 9:38:43 PM
Rhys Nov 20, 2016 9:38:43 PM
559. cupcakez Nov 21, 2016 12:14:36 AM
Noname Nov 21, 2016 12:14:36 AM
Raserei Nov 21, 2016 12:14:36 AM
Kingof2v1 Nov 21, 2016 12:14:36 AM
563. Fumunda Nov 21, 2016 12:42:50 AM
564. BodySnatcher Nov 21, 2016 3:05:02 AM
565. Dak Nov 21, 2016 4:01:00 AM
566. MegalodonG Nov 21, 2016 6:57:39 AM
X5pecialX Nov 21, 2016 6:57:39 AM
568. Wisdom Nov 21, 2016 6:59:40 AM
569. UnReLeNT Nov 21, 2016 5:12:32 PM
570. SQUATCH Nov 21, 2016 10:29:33 PM
571. Lucas Nov 21, 2016 10:51:38 PM
semogolecram Nov 21, 2016 10:51:38 PM
573. Ender Nov 21, 2016 11:13:39 PM
574. Pandora Nov 21, 2016 11:46:42 PM
575. pigeon Nov 22, 2016 6:34:51 AM
재잘재잘 Nov 22, 2016 6:34:51 AM
577. junksolid Nov 22, 2016 7:48:21 AM
578. 小夜 Nov 22, 2016 2:47:15 PM
keith007 Nov 22, 2016 2:47:15 PM
580. Tempo Nov 22, 2016 3:02:59 PM
581. ChrisPBacon Nov 22, 2016 6:12:00 PM
Tippycanoe Nov 22, 2016 6:12:00 PM
583. DreadPirate Nov 22, 2016 7:52:23 PM
PaulieBalls Nov 22, 2016 7:52:23 PM
585. PONYO Nov 22, 2016 8:12:26 PM
586. Gramosh Nov 22, 2016 10:14:56 PM
587. Italiansalad Nov 22, 2016 10:47:40 PM
588. Watanabe Nov 22, 2016 11:04:44 PM
589. Tyddus Nov 22, 2016 11:33:52 PM
590. TooMuchTV Nov 22, 2016 11:39:19 PM
591. Flair4Gold Nov 23, 2016 1:09:40 AM
592. Rylanr Nov 23, 2016 1:17:06 AM
SgtMeyer Nov 23, 2016 1:17:06 AM
594. Enremeit Nov 23, 2016 1:24:18 AM
Vince Nov 23, 2016 1:24:18 AM
596. name551 Nov 23, 2016 1:35:43 AM
流域 Nov 23, 2016 1:35:43 AM
598. Bdawg Nov 23, 2016 1:46:41 AM
599. 無俠 Nov 23, 2016 1:57:47 AM
600. OCP Nov 23, 2016 6:15:05 AM
601. KillerFry Nov 23, 2016 6:38:29 AM
Valars Nov 23, 2016 6:38:29 AM
603. Guacc Nov 23, 2016 8:11:13 AM
BubbleOSeven Nov 23, 2016 8:11:13 AM
605. Avatar Nov 23, 2016 7:50:55 PM
Bibagi Nov 23, 2016 7:50:55 PM
Spec Nov 23, 2016 7:50:55 PM
608. Muhahahaaaaa Nov 24, 2016 12:23:32 AM
Xave Nov 24, 2016 12:23:32 AM
610. Jim Nov 24, 2016 1:40:56 AM
Michi Nov 24, 2016 1:40:56 AM
SamsonKnight Nov 24, 2016 1:40:56 AM
613. Zara Nov 24, 2016 3:33:08 AM
614. jdr0003 Nov 24, 2016 4:24:48 AM
Maan Nov 24, 2016 4:24:48 AM
616. Windows Nov 24, 2016 8:13:13 AM
xSaintApocx Nov 24, 2016 8:13:13 AM
618. BadReligionz Nov 24, 2016 11:17:12 AM
xASAPx Nov 24, 2016 11:17:12 AM
620. Infinite Nov 24, 2016 10:39:25 PM
621. doune Nov 25, 2016 12:35:11 AM
622. Scaithe Nov 25, 2016 8:07:06 AM
623. Latsh Nov 25, 2016 10:21:20 AM
624. Will Nov 25, 2016 1:53:06 PM
625. Alkatraz Nov 25, 2016 8:55:33 PM
Flanked Nov 25, 2016 8:55:33 PM
627. Ghostsignals Nov 25, 2016 9:38:46 PM
628. Urath Nov 25, 2016 11:39:35 PM
Peter Nov 25, 2016 11:39:35 PM
Iktanos Nov 25, 2016 11:39:35 PM
631. DeadlyFeet Nov 26, 2016 2:19:02 AM
632. Smart Nov 26, 2016 2:03:48 PM
633. Bambiraptor Nov 26, 2016 8:43:17 PM
Bacheleren Nov 26, 2016 8:43:17 PM
635. Tardhole Nov 27, 2016 6:13:22 AM
636. MortalSmurph Nov 27, 2016 7:51:30 AM
637. Sannit Nov 27, 2016 9:04:58 AM
638. Panaku Nov 27, 2016 9:25:31 AM
639. Ban3 Nov 27, 2016 9:36:45 AM
640. zeon Nov 27, 2016 10:18:13 AM
641. HeadCrack Nov 27, 2016 5:35:30 PM
642. Getalife Nov 27, 2016 6:10:19 PM
643. eweemike2 Nov 27, 2016 9:52:40 PM
Bengin Nov 27, 2016 9:52:40 PM
Ràstafas Nov 27, 2016 9:52:40 PM
wavy Nov 27, 2016 9:52:40 PM
647. thomas Nov 27, 2016 10:29:47 PM
648. April Nov 27, 2016 11:47:59 PM
649. Blacklung Nov 27, 2016 11:50:06 PM
Vôke Nov 27, 2016 11:50:06 PM
NukeZero Nov 27, 2016 11:50:06 PM
652. Tekzaport Nov 28, 2016 1:19:06 AM
653. greathole Nov 28, 2016 4:26:29 AM
654. Vladi Nov 28, 2016 4:49:22 AM
CmdrKittenz Nov 28, 2016 4:49:22 AM
656. Zyliq Nov 28, 2016 1:54:32 PM
657. Ahlex Nov 28, 2016 2:16:56 PM
658. GHOST Nov 28, 2016 5:35:48 PM
phiona Nov 28, 2016 5:35:48 PM
JivetimeJimi Nov 28, 2016 5:35:48 PM
LtKilljoy Nov 28, 2016 5:35:48 PM
662. rorrimrorrim Nov 28, 2016 6:06:25 PM
663. MAMULENGO Nov 28, 2016 9:55:47 PM
664. MissBamboo Nov 29, 2016 1:42:53 AM
665. nikt Nov 29, 2016 2:36:31 AM
666. 拭水無痕 Nov 29, 2016 6:29:31 AM
不能摸的咪咪 Nov 29, 2016 6:29:31 AM
668. SpeedMan29 Nov 29, 2016 7:21:45 AM
669. gzszy Nov 29, 2016 7:40:10 AM
670. Chootster Nov 29, 2016 8:53:27 AM
671. ARBCHANG Nov 29, 2016 1:49:18 PM
672. JLT Nov 30, 2016 3:20:39 AM
673. Rickako Nov 30, 2016 4:23:42 AM
674. bigbosslau Nov 30, 2016 4:24:30 AM
675. Bushido Nov 30, 2016 6:55:11 AM
sequela Nov 30, 2016 6:55:11 AM
677. Astaodus Nov 30, 2016 7:45:21 AM
678. RaginTellian Nov 30, 2016 12:16:41 PM
679. donald0921 Nov 30, 2016 1:42:08 PM
680. insiDS Nov 30, 2016 6:39:46 PM
681. Collwyn Nov 30, 2016 8:18:45 PM
682. Ruger Nov 30, 2016 10:07:40 PM
683. Masheen Dec 1, 2016 4:13:36 AM
LuckyPrince Dec 1, 2016 4:13:36 AM
685. CJIC Dec 1, 2016 5:28:54 AM
686. nickelfire Dec 1, 2016 6:11:32 AM
687. TheJimReaper Dec 1, 2016 5:43:19 PM
688. Tunguska Dec 2, 2016 1:02:01 AM
689. 非池中 Dec 2, 2016 3:06:36 PM
LiangA Dec 2, 2016 3:06:36 PM
白藥町 Dec 2, 2016 3:06:36 PM
692. Spike Dec 2, 2016 4:47:31 PM
693. Menon Dec 2, 2016 7:19:15 PM
694. Minigun Dec 2, 2016 9:40:37 PM
695. Azlak Dec 3, 2016 3:39:36 AM
Larry Dec 3, 2016 3:39:36 AM
697. hypnoxic Dec 3, 2016 4:40:36 AM
ColdForged Dec 3, 2016 4:40:36 AM
rhcpdabest Dec 3, 2016 4:40:36 AM
Grant Dec 3, 2016 4:40:36 AM
701. TieuLongNu Dec 3, 2016 5:11:05 AM
QNH Dec 3, 2016 5:11:05 AM
703. suariswarm Dec 3, 2016 5:35:52 AM
704. Smalls Dec 3, 2016 7:30:36 AM
705. Bumbly Dec 3, 2016 9:11:15 AM
706. ForgottenD Dec 3, 2016 9:33:41 AM
707. Nuttymike Dec 3, 2016 4:02:51 PM
708. SubtleArts Dec 3, 2016 4:08:09 PM
Highlander Dec 3, 2016 4:08:09 PM
710. WeeabooJones Dec 3, 2016 4:57:03 PM
Elderomen Dec 3, 2016 4:57:03 PM
712. Yank Dec 3, 2016 6:51:50 PM
713. xxdragon666 Dec 3, 2016 7:33:55 PM
tikibomb Dec 3, 2016 7:33:55 PM
DCinMO Dec 3, 2016 7:33:55 PM
DesmondNYC Dec 3, 2016 7:33:55 PM
717. ncd Dec 3, 2016 10:14:47 PM
718. Player Dec 4, 2016 2:15:46 AM
719. havoc Dec 4, 2016 3:13:15 AM
Nanoslice Dec 4, 2016 3:13:15 AM
721. crachii Dec 4, 2016 5:31:41 AM
Asrial Dec 4, 2016 5:31:41 AM
Tao Dec 4, 2016 5:31:41 AM
724. ekraincg Dec 4, 2016 6:54:23 AM
725. Proper Dec 4, 2016 8:05:36 AM
726. PuddingHead Dec 4, 2016 8:14:35 AM
727. james Dec 4, 2016 8:29:16 AM
728. Caela223 Dec 4, 2016 10:35:37 AM
729. Joohee Dec 4, 2016 2:45:07 PM
730. uuugghhh34 Dec 4, 2016 3:05:26 PM
731. ChamCham Dec 4, 2016 4:01:33 PM
Benjamin Dec 4, 2016 4:01:33 PM
HellDiver731 Dec 4, 2016 4:01:33 PM
734. claykoric Dec 4, 2016 8:49:22 PM
Candlbox Dec 4, 2016 8:49:22 PM
Kiwi Dec 4, 2016 8:49:22 PM
737. Samael Dec 4, 2016 9:53:56 PM
738. Crotchfire Dec 4, 2016 10:47:43 PM
739. Vannkirk Dec 4, 2016 11:05:07 PM
vargnatt Dec 4, 2016 11:05:07 PM
Asmodeus Dec 4, 2016 11:05:07 PM
742. BeerDrinker Dec 4, 2016 11:14:36 PM
kTo Dec 4, 2016 11:14:36 PM
744. QcFox Dec 4, 2016 11:30:08 PM
BootX Dec 4, 2016 11:30:08 PM
746. Phyruus Dec 4, 2016 11:46:32 PM
NoOnesMinion Dec 4, 2016 11:46:32 PM
748. SleepWalker Dec 4, 2016 11:55:06 PM
749. shonx Dec 5, 2016 12:32:32 AM
750. Nullpointer Dec 5, 2016 1:03:17 AM
751. Jestara Dec 5, 2016 2:27:26 AM
DarkAngel Dec 5, 2016 2:27:26 AM
753. VonDabelow Dec 5, 2016 2:47:25 AM
754. 寶貓 Dec 5, 2016 2:55:50 AM
755. SmCaylor75 Dec 5, 2016 3:46:33 AM
Soryu Dec 5, 2016 3:46:33 AM
Aahzmadius Dec 5, 2016 3:46:33 AM
Bulvine Dec 5, 2016 3:46:33 AM
759. Melkmann Dec 5, 2016 3:50:31 AM
Troll Dec 5, 2016 3:50:31 AM
761. CrimsonReach Dec 5, 2016 6:11:35 AM
Mirn Dec 5, 2016 6:11:35 AM
lilTimE Dec 5, 2016 6:11:35 AM
764. Jeff Dec 5, 2016 6:18:44 AM
765. Guanlin Dec 5, 2016 3:11:12 PM
Assassin Dec 5, 2016 3:11:12 PM
767. SOKOOL Dec 5, 2016 3:52:03 PM
768. mackey Dec 5, 2016 4:08:59 PM
769. JaysonP Dec 5, 2016 10:56:25 PM
770. Wulgar Dec 6, 2016 1:46:01 AM
FRANKY07 Dec 6, 2016 1:46:01 AM
GoddessKOI Dec 6, 2016 1:46:01 AM
773. melynx Dec 6, 2016 2:01:20 AM
Nojaof Dec 6, 2016 2:01:20 AM
775. thenextslash Dec 6, 2016 2:35:16 AM
HaeByung Dec 6, 2016 2:35:16 AM
777. Devolnu Dec 6, 2016 3:17:33 AM
DconoBarion Dec 6, 2016 3:17:33 AM
Guyver5000 Dec 6, 2016 3:17:33 AM
780. capweenis Dec 6, 2016 5:13:29 AM
781. 幾清高罷摳 Dec 6, 2016 10:02:38 AM
782. Drizzy Dec 6, 2016 2:32:38 PM
783. Spro8 Dec 6, 2016 11:55:44 PM
784. Dragon Dec 7, 2016 12:30:34 AM
785. Magnie Dec 7, 2016 4:16:14 AM
magimac2 Dec 7, 2016 4:16:14 AM
mcgreyger327 Dec 7, 2016 4:16:14 AM
Vidici Dec 7, 2016 4:16:14 AM
789. Shaneo Dec 7, 2016 9:42:33 AM
790. Hyosetsu Dec 7, 2016 5:31:36 PM
791. GLIŦCHY Dec 7, 2016 9:37:43 PM
792. Akeron Dec 7, 2016 11:31:55 PM
793. V3lotrol Dec 7, 2016 11:49:06 PM
794. Pbpredator Dec 8, 2016 1:48:18 AM
backelbout Dec 8, 2016 1:48:18 AM
796. awoserra Dec 8, 2016 9:48:55 AM
797. Greybeard Dec 8, 2016 9:19:52 PM
798. DeeWat1 Dec 8, 2016 11:33:42 PM
799. Sporro Dec 8, 2016 11:41:58 PM
800. rollingsmoke Dec 8, 2016 11:54:57 PM
Sil3nt Dec 8, 2016 11:54:57 PM
802. Artemis Dec 9, 2016 8:44:50 AM
Zarfelt Dec 9, 2016 8:44:50 AM
804. Jay103 Dec 9, 2016 11:08:12 AM
805. Toxzin Dec 9, 2016 9:42:31 PM
806. BanditBoy Dec 10, 2016 6:47:54 AM
Darth Dec 10, 2016 6:47:54 AM
Mudcrush Dec 10, 2016 6:47:54 AM
809. Fiarrow Dec 10, 2016 7:36:04 AM
810. Crispon500 Dec 10, 2016 6:23:05 PM
811. Dreadnaught Dec 10, 2016 7:31:00 PM
812. broseph Dec 10, 2016 8:23:28 PM
kblemoir Dec 10, 2016 8:23:28 PM
814. Gwynevere Dec 10, 2016 8:51:30 PM
815. Eleonor Dec 10, 2016 11:18:23 PM
816. Shabadu Dec 11, 2016 12:37:00 AM
817. Synnisster Dec 11, 2016 12:53:01 AM
YoungMetro Dec 11, 2016 12:53:01 AM
LadyinReady Dec 11, 2016 12:53:01 AM
820. Tommyc747 Dec 11, 2016 2:25:50 AM
Treefrog Dec 11, 2016 2:25:50 AM
822. Nas Dec 11, 2016 2:36:54 AM
Dalimar Dec 11, 2016 2:36:54 AM
Zalmonah Dec 11, 2016 2:36:54 AM
Rift Dec 11, 2016 2:36:54 AM
826. calaminekid Dec 11, 2016 2:50:05 AM
827. Inimitable Dec 11, 2016 3:19:17 AM
828. Zio Dec 11, 2016 4:13:39 AM
Akira Dec 11, 2016 4:13:39 AM
830. MasterShade Dec 11, 2016 4:53:09 AM
Drexs Dec 11, 2016 4:53:09 AM
832. Dahel Dec 11, 2016 6:20:57 AM
Daverose Dec 11, 2016 6:20:57 AM
834. Kalin Dec 11, 2016 2:19:18 PM
PSTDragon Dec 11, 2016 2:19:18 PM
DonFalcone Dec 11, 2016 2:19:18 PM
837. Biri Dec 11, 2016 6:06:38 PM
838. Dritz Dec 11, 2016 7:45:31 PM
Maklin Dec 11, 2016 7:45:31 PM
John83 Dec 11, 2016 7:45:31 PM
841. Aequitas Dec 11, 2016 10:50:48 PM
842. Caster Dec 11, 2016 11:09:58 PM
843. Gunner07 Dec 11, 2016 11:27:51 PM
844. JOCK Dec 12, 2016 12:38:21 AM
Soldierscion Dec 12, 2016 12:38:21 AM
846. spartanstix Dec 12, 2016 1:01:37 AM
Firebullet Dec 12, 2016 1:01:37 AM
Cowboy Dec 12, 2016 1:01:37 AM
849. Greyson Dec 12, 2016 1:52:30 AM
Majoris Dec 12, 2016 1:52:30 AM
851. Drax311 Dec 12, 2016 3:56:25 AM
852. Rock Dec 12, 2016 5:20:33 AM
RokERode75 Dec 12, 2016 5:20:33 AM
854. Phaelanx Dec 12, 2016 5:21:46 AM
855. FoGrenu Dec 12, 2016 6:35:10 AM
Wyll Dec 12, 2016 6:35:10 AM
857. Cannula Dec 12, 2016 7:00:55 AM
858. SU1C1D3 Dec 12, 2016 7:00:56 AM
859. MrGreen Dec 12, 2016 7:08:32 AM
AWORO Dec 12, 2016 7:08:32 AM
861. Fikn Dec 12, 2016 7:24:36 AM
862. Yeti Dec 12, 2016 9:35:02 AM
863. RayRogger Dec 12, 2016 11:58:36 AM
864. Silenus Dec 12, 2016 1:14:11 PM
865. Richness Dec 12, 2016 5:18:54 PM
INSANEASYLUM Dec 12, 2016 5:18:54 PM
LeFrenchm4n Dec 12, 2016 5:18:54 PM
SuperNovaBot Dec 12, 2016 5:18:54 PM
869. OhTwoMise Dec 12, 2016 5:41:43 PM
870. Morzac Dec 12, 2016 10:32:43 PM
871. marine Dec 13, 2016 1:33:53 AM
872. chaos Dec 13, 2016 4:26:10 AM
873. Draco Dec 13, 2016 4:57:28 AM
874. will Dec 13, 2016 5:19:19 AM
875. DevilHorse Dec 13, 2016 3:11:26 PM
876. Ayrie Dec 14, 2016 4:17:55 AM
877. Cvaal Dec 14, 2016 3:21:16 PM
878. Kush Dec 14, 2016 11:25:16 PM
879. xxanto20xx Dec 15, 2016 1:01:56 AM
880. UniCornXiiZz Dec 15, 2016 1:27:38 AM
881. FURY Dec 15, 2016 4:29:16 PM
882. mgstilben Dec 15, 2016 6:50:35 PM
883. ACERA Dec 16, 2016 1:34:42 AM
884. NumberOne Dec 16, 2016 1:43:52 AM
885. Lipkame Dec 16, 2016 2:58:01 AM
886. summers Dec 16, 2016 11:18:09 AM
Simmotheman Dec 16, 2016 11:18:09 AM
Adalsone Dec 16, 2016 11:18:09 AM
889. Pyroman43 Dec 16, 2016 10:33:06 PM
MrGreen Dec 16, 2016 10:33:06 PM
891. BrettTurner Dec 17, 2016 1:39:11 AM
892. 笨小鼠 Dec 17, 2016 7:30:27 AM
893. Gyu Dec 17, 2016 8:48:32 AM
894. 刺激火腿 Dec 17, 2016 8:56:57 AM
娘娘爻只噯寶 Dec 17, 2016 8:56:57 AM
896. Markyn Dec 17, 2016 3:46:58 PM
897. Nemesis3640 Dec 17, 2016 4:48:29 PM
898. MROSSO Dec 17, 2016 6:04:30 PM
899. FabioFCFilho Dec 17, 2016 6:25:17 PM
900. marebito Dec 17, 2016 6:35:43 PM
901. IIHorusSII Dec 17, 2016 6:54:32 PM
902. Ragnarokxs Dec 17, 2016 7:57:27 PM
darkhunter Dec 17, 2016 7:57:27 PM
904. TyphooN Dec 17, 2016 8:13:16 PM
905. haug Dec 17, 2016 8:24:52 PM
906. Waribarie Dec 17, 2016 9:43:42 PM
SilverHawk Dec 17, 2016 9:43:42 PM
908. Darion Dec 17, 2016 10:53:23 PM
909. Slayer Dec 18, 2016 12:37:13 AM
XZero Dec 18, 2016 12:37:13 AM
911. Echo Dec 18, 2016 1:44:47 AM
912. Justiciar Dec 18, 2016 6:09:33 AM
DeaconFrost Dec 18, 2016 6:09:33 AM
914. Tougeznut Dec 18, 2016 6:25:02 AM
915. Dec 18, 2016 7:20:38 AM
916. Medallian Dec 18, 2016 7:27:49 AM
917. Barao Dec 18, 2016 2:31:05 PM
918. Masteration Dec 18, 2016 2:47:13 PM
919. RedTanager Dec 18, 2016 4:27:37 PM
920. Toadski Dec 18, 2016 7:26:10 PM
Debrouchee Dec 18, 2016 7:26:10 PM
922. Draxith Dec 18, 2016 8:35:37 PM
923. ArcticWolf Dec 18, 2016 10:54:30 PM
Dillweed80 Dec 18, 2016 10:54:30 PM
925. LaWL Dec 19, 2016 12:26:08 AM
926. SylphAero Dec 19, 2016 12:43:21 AM
927. Krick Dec 19, 2016 1:14:14 AM
Whisper Dec 19, 2016 1:14:14 AM
929. WildPants Dec 19, 2016 2:15:09 AM
930. Alhezz Dec 19, 2016 3:56:23 AM
Sancho77 Dec 19, 2016 3:56:23 AM
932. ZeSlainer Dec 19, 2016 4:19:20 AM
933. Stylin Dec 19, 2016 6:12:14 AM
934. modifier Dec 19, 2016 8:05:07 AM
935. MARS Dec 19, 2016 9:57:04 AM
936. TurboBetaD2 Dec 19, 2016 10:47:48 PM
937. Hoot67037 Dec 19, 2016 11:42:20 PM
938. Semjâzâ Dec 20, 2016 5:33:37 AM
JudgeDredd Dec 20, 2016 5:33:37 AM
940. ancientku Dec 20, 2016 6:10:43 AM
941. kllrsw5 Dec 20, 2016 7:04:49 AM
942. chan Dec 20, 2016 10:42:51 AM
943. ZoNeKiLLa420 Dec 20, 2016 10:46:36 AM
Marcoe85 Dec 20, 2016 10:46:36 AM
Graffy Dec 20, 2016 10:46:36 AM
DaRkOrk Dec 20, 2016 10:46:36 AM
947. Rathorse Dec 20, 2016 2:44:26 PM
948. Tea Dec 20, 2016 4:45:57 PM
HowieH Dec 20, 2016 4:45:57 PM
950. derp Dec 20, 2016 8:08:06 PM
951. berloffa Dec 20, 2016 11:06:22 PM
952. Mushroomman Dec 21, 2016 2:02:48 AM
953. Kiet Dec 21, 2016 2:46:10 AM
CaLiGurLZ Dec 21, 2016 2:46:10 AM
Force7 Dec 21, 2016 2:46:10 AM
956. Fealorin Dec 21, 2016 4:27:03 AM
957. sanh Dec 21, 2016 8:20:57 AM
958. KYZERSOSAE Dec 21, 2016 10:53:11 AM
959. VeePow Dec 21, 2016 12:03:16 PM
960. Silenus Dec 21, 2016 12:06:06 PM
Bluman Dec 21, 2016 12:06:06 PM
962. Havok Dec 21, 2016 9:37:47 PM
963. mkbvb08 Dec 21, 2016 10:14:48 PM
Snikt Dec 21, 2016 10:14:48 PM
965. Steve Dec 22, 2016 12:10:36 AM
966. jrich Dec 22, 2016 12:26:00 AM
967. moses Dec 22, 2016 12:35:45 AM
968. sKai Dec 22, 2016 1:52:39 AM
969. Arkonn Dec 22, 2016 1:59:48 AM
970. careface Dec 22, 2016 2:47:57 AM
971. JumpyWizard Dec 22, 2016 4:30:43 AM
972. Merps Dec 22, 2016 6:36:08 AM
973. HappySky Dec 22, 2016 11:37:19 AM
974. Furui Dec 22, 2016 1:37:35 PM
975. Lionhawk Dec 22, 2016 10:59:42 PM
976. b3oWu1F Dec 23, 2016 1:10:48 AM
977. Billow Dec 23, 2016 2:43:58 AM
978. EPL23 Dec 23, 2016 3:07:02 AM
979. yaydestiny Dec 23, 2016 3:46:54 AM
980. Sepulhazard2 Dec 23, 2016 4:00:15 AM
Gad Dec 23, 2016 4:00:15 AM
982. Kaeleus Dec 23, 2016 5:52:39 AM
983. GoBliNChaMp Dec 23, 2016 6:11:51 AM
984. Banaco Dec 23, 2016 6:22:56 AM
985. Hapa Dec 23, 2016 9:11:06 AM
986. vincentyip Dec 23, 2016 9:15:46 AM
987. yin1207 Dec 23, 2016 9:43:05 AM
988. Rouge Dec 23, 2016 11:12:22 AM
989. SpookyParrot Dec 23, 2016 12:00:02 PM
990. ChrishLing Dec 23, 2016 4:32:52 PM
991. HellWitch Dec 23, 2016 8:11:32 PM
992. Scurvivalist Dec 24, 2016 1:45:03 AM
eLeMeNt Dec 24, 2016 1:45:03 AM
994. CrazyPyrex Dec 24, 2016 5:34:43 AM
995. LordCheezus Dec 24, 2016 5:59:31 AM
996. FrollicAcid Dec 24, 2016 6:18:37 AM
997. ATrain Dec 24, 2016 6:36:43 AM
998. Dream Dec 24, 2016 1:52:06 PM
999. Tripnosis Dec 24, 2016 4:37:02 PM
Fox Dec 24, 2016 4:37:02 PM
1001. Raestlin Dec 24, 2016 4:54:34 PM
1002. ArgentinaBoy Dec 25, 2016 12:23:16 AM
1003. OhSiSi Dec 25, 2016 4:31:51 AM
1004. Fish Dec 25, 2016 6:28:51 AM
1005. LazyMutt Dec 25, 2016 8:15:52 AM
1006. swefxstdi02 Dec 25, 2016 3:48:13 PM
1007. Sniperisone Dec 25, 2016 4:48:30 PM
1008. bignic Dec 25, 2016 6:04:23 PM
1009. Jizzza Dec 25, 2016 9:07:18 PM
1010. Mobswut Dec 25, 2016 10:02:43 PM
1011. kkhugs Dec 25, 2016 11:20:26 PM
Aimfish Dec 25, 2016 11:20:26 PM
1013. sirseagill Dec 25, 2016 11:38:58 PM
1014. MyL Dec 25, 2016 11:48:18 PM
1015. DangerAwar Dec 26, 2016 1:17:06 AM
1016. Shaun Dec 26, 2016 10:56:15 AM
1017. Joku Dec 26, 2016 10:59:43 AM
Phil Dec 26, 2016 10:59:43 AM
1019. yeah Dec 26, 2016 4:08:06 PM
1020. Fabuloss Dec 26, 2016 4:57:31 PM
1021. SilentExodus Dec 26, 2016 5:03:30 PM
1022. TRENT666 Dec 26, 2016 7:12:03 PM
1023. HotRod61568 Dec 26, 2016 7:15:38 PM
1024. waivted Dec 26, 2016 11:21:44 PM
1025. LukMito2 Dec 27, 2016 12:10:28 AM
1026. LeftBall Dec 27, 2016 1:09:37 AM
1027. Del Dec 27, 2016 3:03:29 AM
1028. TooDusty Dec 27, 2016 3:45:49 AM
1029. Xour Dec 27, 2016 5:51:40 AM
1030. DeAthMrcHnt Dec 27, 2016 2:34:08 PM
1031. Lucid Dec 27, 2016 4:07:50 PM
1032. Ravanant Dec 27, 2016 5:46:52 PM
1033. Cayan Dec 27, 2016 11:38:10 PM
1034. Decoy Dec 28, 2016 2:54:35 AM
ghosted Dec 28, 2016 2:54:35 AM
1036. Dahhak Dec 28, 2016 2:57:29 AM
clauvani Dec 28, 2016 2:57:29 AM
Toshiya Dec 28, 2016 2:57:29 AM
1039. FullGrownMan Dec 28, 2016 3:44:27 AM
Bhauls Dec 28, 2016 3:44:27 AM
Javaco Dec 28, 2016 3:44:27 AM
1042. JustinStone Dec 28, 2016 5:24:55 AM
1043. SpiritOfRage Dec 28, 2016 6:46:39 AM
1044. stinkydurian Dec 28, 2016 7:45:06 AM
1045. Sentient Dec 28, 2016 8:40:14 AM
RaynorPTY Dec 28, 2016 8:40:14 AM
JellyDonuts Dec 28, 2016 8:40:14 AM
1048. Izeha Dec 28, 2016 7:15:20 PM
1049. Lothmorg Dec 28, 2016 8:57:09 PM
HiDude Dec 28, 2016 8:57:09 PM
1051. NMRDaddy Dec 29, 2016 5:40:57 AM
1052. Puz Dec 29, 2016 6:16:14 AM
1053. Dimo Dec 29, 2016 6:17:20 AM
1054. Syd Dec 29, 2016 6:35:08 AM
1055. Draxxen Dec 29, 2016 8:20:23 AM
1056. Waxxer Dec 29, 2016 2:25:58 PM
1057. Ugly Dec 29, 2016 5:36:52 PM
1058. Napo Dec 29, 2016 6:00:11 PM
1059. Yabasta Dec 29, 2016 11:53:14 PM
1060. Daays Dec 30, 2016 12:57:38 AM
1061. Lelouch Dec 30, 2016 2:43:07 AM
1062. Octavian Dec 30, 2016 4:09:06 AM
PiterDeVries Dec 30, 2016 4:09:06 AM
Abazzigal Dec 30, 2016 4:09:06 AM
Siman Dec 30, 2016 4:09:06 AM
1066. Crashyo Dec 30, 2016 2:01:30 PM
1067. Spanki Dec 30, 2016 6:31:21 PM
1068. Purplemd Dec 30, 2016 6:48:40 PM
Arwen Dec 30, 2016 6:48:40 PM
aleusian Dec 30, 2016 6:48:40 PM
BakRakADak Dec 30, 2016 6:48:40 PM
1072. Gerbil Dec 30, 2016 6:49:33 PM
1073. Ryax Dec 30, 2016 7:08:55 PM
1074. Antic Dec 30, 2016 8:02:13 PM
1075. MaDDaBBeR Dec 30, 2016 8:22:16 PM
1076. Eagleeyes81 Dec 30, 2016 8:57:09 PM
1077. annegab Dec 30, 2016 9:24:51 PM
1078. Morte Dec 30, 2016 11:02:26 PM
Showing 1150 of 1,078 results